This demonstration page uses our WeatherBlox Daily Observations layout. Learn more.

Left ArrowRight Arrow

39.08367, -84.50855

Hourly Observations for December 18, 2020

Temp ( °F °C ) Dew Point ( °F °C ) Humidity (%) Winds ( mph kmh ) Pressure ( in mb ) Visibility ( mi km ) Precip ( " mm )
12:53 am 00:53 Cloudy 33 0.6 27 -2.8 78 78 WNW 3 6 30.31 1027 8 12.87472 0 0
1:53 am 01:53 Cloudy 33 0.6 27 -2.8 78 78 NW 5 7 30.33 1027 9 14.48406 0 0
2:20 am 02:20 Cloudy 33 0.6 27 -2.8 78 78 Calm 30.36 1028 8 12.87472 0 0
2:53 am 02:53 Cloudy 33 0.6 28 -2.2 82 82 WNW 5 7 30.35 1028 8 12.87472 0 0
3:53 am 03:53 Cloudy 33 0.6 28 -2.2 82 82 Calm 30.37 1029 8 12.87472 0 0
4:13 am 04:13 Cloudy 33 0.6 28 -2.2 82 82 WNW 5 7 30.39 1029 8 12.87472 0 0
4:53 am 04:53 Cloudy 33 0.6 28 -2.2 82 82 W 7 11 30.38 1029 8 12.87472 0 0
5:53 am 05:53 Cloudy 33 0.6 28 -2.2 82 82 Calm 30.4 1029 7 11.26538 0 0
6:36 am 06:36 Cloudy with Mist and Fog 32 0 29 -1.7 88 88 Calm 30.43 1030 6 9.65604 0 0
6:44 am 06:44 Cloudy 33 0.6 29 -1.7 85 85 Calm 30.43 1030 7 11.26538 0 0
6:53 am 06:53 Cloudy with Mist and Fog 32 0 29 -1.7 88 88 Calm 30.42 1030 6 9.65604 0 0
7:53 am 07:53 Cloudy with Mist and Fog 32 0 28 -2.2 85 85 Calm 30.45 1031 6 9.65604 0 0
8:53 am 08:53 Cloudy with Mist and Fog 32 0 29 -1.7 88 88 Calm 30.46 1032 6 9.65604 0 0
9:53 am 09:53 Mostly Cloudy with Haze 35 1.7 28 -2.2 76 76 Calm 30.47 1032 6 9.65604 0 0
10:53 am 10:53 Partly Cloudy 35 1.7 27 -2.8 72 72 Calm 30.47 1032 7 11.26538 0 0
11:53 am 11:53 Mostly Cloudy 37 2.8 27 -2.8 67 67 SW 5 7 30.47 1032 10 16.0934 0 0
12:15 pm 12:15 Mostly Cloudy 37 2.8 27 -2.8 67 67 SSW 5 7 30.47 1032 10 16.0934 0 0
12:53 pm 12:53 Mostly Cloudy 38 3.3 26 -3.3 62 62 SSE 7 11 30.44 1031 10 16.0934 0 0
1:53 pm 13:53 Partly Cloudy 38 3.3 26 -3.3 62 62 S 6 9 30.43 1030 10 16.0934 0 0
2:53 pm 14:53 Sunny 40 4.4 25 -3.9 55 55 SSE 9 15 30.41 1030 10 16.0934 0 0
3:53 pm 15:53 Mostly Sunny 38 3.3 26 -3.3 62 62 S 8 13 30.42 1030 10 16.0934 0 0
4:53 pm 16:53 Sunny 38 3.3 25 -3.9 60 60 SSE 6 9 30.4 1030 10 16.0934 0 0
5:53 pm 17:53 Clear 37 2.8 25 -3.9 62 62 S 9 15 30.41 1030 10 16.0934 0 0
6:53 pm 18:53 Clear 35 1.7 24 -4.4 64 64 SSE 5 7 30.4 1030 10 16.0934 0 0
7:53 pm 19:53 Clear 34 1.1 24 -4.4 67 67 Calm 30.4 1029 10 16.0934 0 0
8:53 pm 20:53 Clear 31 -0.6 25 -3.9 79 79 Calm 30.39 1029 10 16.0934 0 0
9:53 pm 21:53 Clear 29 -1.7 24 -4.4 82 82 Calm 30.39 1029 10 16.0934 0 0
10:53 pm 22:53 Clear 30 -1.1 24 -4.4 79 79 SW 3 6 30.39 1029 10 16.0934 0 0
11:53 pm 23:53 Clear 29 -1.7 24 -4.4 82 82 SW 3 6 30.38 1029 10 16.0934 0 0

Powered by AerisWeather